Hlavní strana
METAR-TAF:

METAR-TAF

Letiště :

Lincolnton-Lincoln County Regional Airport

Lincolnton, Severní Karolína, Spojené státy americké

zeměpisná šířka: 35-28-59N, zeměpisná délka: 081-09-41W, výška: 267 m

Aktuální stav počasí

Zpráva byla vytvořena před 22 minutami, v 17:15 UTC
Severoseverozápadní vítr 7 kt
Teplota 6°C
Vlhkost vzduchu 31%
Tlak 1018 hPa
Viditelnost: 16.1 km
Jasno

METAR: KIPJ 271715Z AUTO 34007KT 10SM CLR 06/M10 A3006 RMK AO2 T00611097

Čas: 12:37 (17:37 UTC)


TAF: chybějící

Stav a předpovědi počasí z více než 4 000 letišť (zprávy METAR a TAF).

Červené a žluté tečky na mapě představují dostupné meteorologické stanice.

Když kurzor umístíte na tečku, zobrazí se název stanice.

Pak kliknutím zobrazíte stav a předpověď počasí.

Chcete-li změnit mapu, kliknutím na zelené tlačítko se znaménkem +mapu přiblížíte, kliknutím na zelené tlačítko se znaménkem – mapu oddálíte a kliknutím na zelené šipky přejdete na sousední mapy.


METAR-TAF: